This demonstration page uses our WeatherBlox Daily Observations layout. Learn more.

Left ArrowRight Arrow

Hourly Observations for August 5, 2015

Temp ( °F °C ) Dew Point ( °F °C ) Humidity (%) Winds ( mph kmh ) Pressure ( in mb ) Visibility ( mi km ) Precip ( " mm )
12:51 am 00:51 Clear 82 27.8 43 6.1 25 25 WNW 8 13 29.77 1008 10 16 0.00 0.00
1:51 am 01:51 Clear 79 26.1 41 5 26 26 N 3 6 29.78 1008 10 16 0.00 0.00
2:51 am 02:51 Clear 76 24.4 43 6.1 31 31 NW 7 11 29.79 1009 10 16 0.00 0.00
3:51 am 03:51 Clear 78 25.6 41 5 27 27 NW 7 11 29.79 1009 10 16 0.00 0.00
4:51 am 04:51 Clear 75 23.9 42 5.6 31 31 ENE 5 7 29.80 1009 10 16 0.00 0.00
5:51 am 05:51 Sunny 74 23.3 43 6.1 33 33 SE 5 7 29.83 1010 10 16 0.00 0.00
6:51 am 06:51 Sunny 79 26.1 46 7.8 31 31 Calm 29.85 1011 10 16 0.00 0.00
7:51 am 07:51 Sunny 82 27.8 44 6.7 26 26 SSE 3 6 29.87 1012 10 16 0.00 0.00
8:51 am 08:51 Sunny 88 31.1 43 6.1 21 21 SSW 5 7 29.86 1011 10 16 0.00 0.00
9:51 am 09:51 Sunny 94 34.4 42 5.6 17 17 WNW 6 9 29.85 1011 10 16 0.00 0.00
10:51 am 10:51 Sunny 99 37.2 41 5 14 14 WNW 13 20 29.84 1010 10 16 0.00 0.00
11:51 am 11:51 Sunny 102 38.9 39 3.9 11 11 WNW 15 24 29.81 1010 10 16 0.00 0.00
12:51 pm 12:51 Mostly Sunny 105 40.6 42 5.6 12 12 W 20 31 29.79 1009 10 16 0.00 0.00
1:51 pm 13:51 Sunny 106 41.1 42 5.6 11 11 NW 13 20 29.77 1008 10 16 0.00 0.00
2:51 pm 14:51 Mostly Cloudy 107 41.7 42 5.6 11 11 WNW 16 26 29.75 1007 10 16 0.00 0.00
3:51 pm 15:51 Cloudy 106 41.1 42 5.6 11 11 W 14 22 29.72 1007 10 16 0.00 0.00
4:51 pm 16:51 Mostly Cloudy 105 40.6 42 5.6 12 12 NW 16 26 29.71 1006 10 16 0.00 0.00
5:51 pm 17:51 Mostly Cloudy 103 39.4 42 5.6 12 12 W 15 24 29.70 1006 10 16 0.00 0.00
6:51 pm 18:51 Mostly Cloudy 100 37.8 41 5 13 13 NW 13 20 29.70 1006 10 16 0.00 0.00
7:51 pm 19:51 Partly Cloudy 95 35 42 5.6 16 16 NW 14 22 29.73 1007 10 16 0.00 0.00
8:51 pm 20:51 Clear 92 33.3 40 4.4 16 16 NW 13 20 29.74 1007 10 16 0.00 0.00
9:51 pm 21:51 Clear 92 33.3 40 4.4 16 16 NW 13 20 29.75 1007 10 16 0.00 0.00
10:51 pm 22:51 Clear 91 32.8 39 3.9 16 16 NW 12 19 29.73 1007 10 16 0.00 0.00
11:51 pm 23:51 Clear 89 31.7 39 3.9 17 17 NW 13 20 29.74 1007 10 16 0.00 0.00

Powered by AerisWeather